Wind_Speed
5 7 8 10 10 11 11 11 10 9 9 9 10 9 9 10 10 10 10 10 9 9 9 9 8 8 8 7 7 6 6 7 7 8 10 11 12 13 14 15 16 17 17 17
4 6 7 9 9 9 9 9 9 9 8 8 8 8 8 9 9 9 9 9 9 9 9 9 8 8 8 8 7 6 6 7 8 8 10 11 12 13 14 15 16 17 17 17
4 5 5 6 7 7 7 8 8 8 6 7 7 6 6 7 8 9 9 9 9 9 8 8 8 8 8 8 7 7 6 7 8 9 10 11 12 13 15 16 17 17 17 17
5 5 5 5 7 7 7 7 7 7 6 5 5 5 6 6 7 8 8 9 9 9 9 8 8 8 8 8 7 7 7 7 8 9 10 11 12 14 15 16 17 17 18 18
6 5 5 5 6 6 6 6 6 6 6 6 5 5 5 5 6 7 8 8 9 9 9 8 8 8 8 7 7 7 7 8 8 9 10 11 12 14 15 16 17 17 18 18
6 5 5 5 5 6 6 6 6 5 6 6 6 5 5 4 5 6 8 8 8 8 8 7 7 7 7 7 7 7 8 8 9 9 10 11 12 14 15 16 17 17 18 18
6 5 5 5 6 6 6 6 6 6 6 6 6 6 5 5 5 5 7 7 7 7 7 6 6 7 7 7 8 8 8 8 9 9 10 12 13 13 14 15 16 17 18 18
6 6 5 6 6 7 6 6 5 5 5 5 6 7 5 4 4 4 5 6 7 7 7 7 7 7 7 7 7 7 7 8 8 9 10 12 13 13 14 15 16 17 17 17
6 6 5 6 6 6 6 5 4 4 4 5 5 6 5 4 3 3 4 5 6 6 7 6 7 7 7 7 7 7 7 8 9 10 11 12 13 13 14 15 16 16 17 17
5 4 4 5 5 4 4 4 4 4 4 5 5 4 5 4 3 3 4 5 6 6 6 6 7 7 7 7 8 8 8 8 9 10 11 12 13 13 14 15 15 16 16 16
4 3 3 4 3 3 3 3 3 3 3 4 4 3 4 4 4 4 4 5 6 6 7 7 7 7 7 8 8 9 9 9 9 10 11 12 13 13 14 14 15 15 16 16
2 2 2 2 2 2 2 2 2 2 3 3 3 3 4 5 6 6 6 7 7 7 8 8 8 8 9 9 9 10 10 10 10 11 11 11 12 13 14 14 14 15 15 15
1 1 0 1 1 1 1 2 2 2 2 3 4 4 5 6 7 8 8 8 8 9 9 9 9 10 10 10 10 10 10 11 11 12 12 12 13 13 14 14 14 15 15 15
1 1 1 2 2 2 3 4 4 4 4 5 5 6 7 8 8 9 10 10 10 10 11 11 11 11 11 11 11 11 11 11 12 13 13 13 13 14 14 14 14 14 14 14
3 3 3 3 3 4 5 6 7 7 7 7 7 8 9 9 10 11 12 12 12 12 12 12 12 12 12 12 12 12 12 12 13 13 14 14 14 14 14 14 14 14 14 14
5 5 5 5 6 6 7 8 8 8 9 9 10 10 12 12 12 13 13 14 14 14 14 15 14 14 14 14 14 14 14 13 13 14 14 14 15 14 14 14 14 14 14 14
8 8 8 8 9 10 9 9 10 10 10 11 12 13 14 14 15 15 16 16 16 16 16 16 16 16 16 16 16 15 15 15 15 15 15 15 15 15 15 14 14 14 14 13
10 11 11 11 11 11 11 11 12 12 12 13 14 15 16 17 17 17 18 18 18 19 19 18 19 18 18 18 17 18 18 17 16 17 16 16 16 16 16 15 14 14 14 14
13 13 14 14 14 14 13 13 14 14 14 15 16 18 19 19 19 19 19 20 20 21 21 21 21 21 20 20 20 19 20 19 18 18 18 17 17 17 17 16 15 15 15 14
16 16 16 16 16 16 15 16 16 17 17 18 20 20 21 21 21 21 21 22 22 23 23 23 23 23 23 22 22 21 21 20 20 20 19 19 18 18 18 17 17 16 16 15
18 18 18 18 19 18 18 18 19 20 20 21 22 22 23 23 23 23 23 24 24 24 25 25 25 25 25 25 24 24 23 23 22 21 21 21 20 20 19 19 18 18 17 17
20 21 21 21 21 21 21 21 22 22 23 23 23 24 25 25 26 26 26 26 27 27 27 27 27 28 28 27 27 26 26 25 24 24 23 23 23 22 21 21 20 20 19 18
22 23 23 23 24 24 24 24 25 25 26 26 27 27 27 28 28 29 29 29 29 29 29 29 30 30 30 30 30 29 28 28 27 27 26 26 26 25 24 23 23 22 21 20
24 25 26 26 26 27 27 28 28 28 29 29 30 30 30 30 30 31 31 31 31 31 32 31 31 32 32 32 32 32 31 31 30 30 29 28 28 27 27 26 25 24 24 22
28 29 29 29 30 30 31 31 31 32 32 32 32 33 33 33 33 33 32 32 32 32 32 33 33 33 32 33 33 33 33 32 32 31 30 30 30 30 29 29 28 27 26 25
31 32 33 32 32 33 33 34 34 35 35 35 35 35 35 35 35 34 34 34 34 34 35 35 35 35 34 34 34 35 35 35 34 34 33 33 32 32 31 31 30 29 28 28
Wind_Direction
215 214 212 210 215 219 223 228 228 227 231 236 238 246 245 234 228 221 218 221 223 225 232 240 243 244 248 253 258 266 279 296 312 324 330 331 332 332 332 332 334 335 334 333
193 197 195 203 206 211 217 217 218 220 223 226 227 232 227 221 219 216 218 218 221 227 233 241 247 247 250 257 260 266 275 293 309 321 327 330 332 333 334 336 336 336 336 336
147 162 175 186 189 196 200 204 205 208 215 217 215 209 210 215 221 222 223 223 227 229 233 243 247 248 250 254 259 266 275 292 306 316 325 329 332 335 337 338 338 338 338 338
126 142 151 166 176 182 188 193 194 198 203 200 197 195 203 214 221 224 224 223 227 229 234 246 251 250 252 256 260 267 275 289 303 313 323 329 333 335 338 339 339 339 339 339
108 128 141 157 169 181 187 186 191 190 187 184 184 189 193 204 215 220 223 227 230 234 239 245 247 250 254 259 263 271 277 288 300 312 321 327 331 334 337 338 339 339 339 339
106 115 124 138 153 164 172 173 172 175 177 177 179 183 182 189 203 212 221 229 237 243 244 245 247 252 255 260 266 273 280 287 298 310 319 324 327 331 335 338 339 339 340 340
102 108 115 130 143 151 161 164 166 169 171 175 181 184 182 190 208 221 230 235 241 247 253 254 254 255 259 262 268 273 279 285 295 306 315 320 323 327 331 335 338 338 339 341
99 107 115 127 138 146 153 160 163 164 166 171 184 186 188 203 220 236 241 241 245 251 258 260 256 257 260 263 267 274 283 289 297 306 314 318 322 325 329 333 336 339 340 341
101 111 118 127 129 137 141 155 168 167 169 183 190 196 201 210 228 250 261 258 255 258 263 262 260 261 262 261 264 271 281 289 297 306 313 319 322 325 328 331 335 339 340 341
93 104 114 129 136 143 149 150 164 178 189 191 199 217 225 233 260 276 278 268 262 266 267 268 269 268 266 267 268 273 279 286 296 304 311 317 320 322 326 329 333 337 340 342
87 97 114 134 148 157 160 165 179 192 201 207 218 232 243 259 272 282 284 276 269 267 269 269 270 270 271 272 275 279 283 287 293 301 307 312 316 319 323 327 330 334 338 341
81 96 115 137 151 166 178 188 195 223 234 237 245 248 261 270 276 277 283 282 275 275 275 275 278 278 278 277 279 282 285 289 291 296 303 308 312 317 321 325 329 333 336 340
88 105 112 163 199 210 233 246 249 257 251 250 257 267 278 277 279 280 284 283 281 280 279 278 279 281 282 281 281 284 285 287 291 294 298 303 309 313 318 322 325 330 334 338
296 289 283 290 274 280 277 275 276 277 275 269 273 277 281 282 285 284 284 283 283 282 280 278 277 280 283 282 281 283 285 288 290 293 296 300 305 309 312 316 321 326 329 332
290 291 280 274 272 274 275 274 277 278 278 276 278 280 280 280 282 283 284 284 283 282 279 277 277 280 282 282 282 281 283 286 289 291 294 297 301 305 309 313 317 321 325 328
285 284 280 273 274 275 277 275 274 276 278 279 278 279 280 283 284 284 283 284 283 282 281 281 279 279 280 282 283 282 282 283 287 289 291 293 295 298 303 309 313 316 318 322
278 280 280 278 279 281 284 284 282 282 280 278 278 279 281 282 283 283 283 283 283 282 281 280 280 279 278 279 281 283 284 283 285 286 288 290 292 294 297 302 307 310 312 315
276 278 280 281 282 282 284 283 282 282 283 280 280 280 282 282 281 281 281 282 282 282 281 280 280 279 278 277 278 280 281 283 284 284 285 286 289 291 293 297 301 304 306 309
273 276 278 279 280 283 286 285 282 282 283 283 281 282 284 285 285 283 282 281 282 282 281 280 279 278 277 277 276 277 278 279 281 283 283 285 287 289 291 293 296 298 301 303
274 276 279 279 279 282 285 284 283 282 283 283 283 284 285 286 286 286 284 282 282 281 280 279 278 278 276 275 274 274 275 276 278 280 281 282 283 285 288 290 291 293 296 298
273 274 277 278 279 280 282 282 283 282 284 283 284 285 285 286 286 285 284 283 282 280 279 278 277 276 275 273 273 272 273 273 275 276 277 278 279 281 283 285 286 288 290 292
273 275 276 278 278 279 281 282 282 283 283 285 285 285 285 285 285 284 282 281 280 279 278 277 276 275 274 273 272 272 272 273 274 273 273 275 276 277 278 279 281 282 285 287
273 275 276 277 277 278 278 280 281 282 283 284 284 283 282 282 282 281 280 279 278 278 277 277 275 274 274 272 272 270 270 270 272 273 272 272 273 274 275 275 276 278 279 281
273 274 275 276 277 277 278 279 280 282 284 284 283 282 282 282 281 281 280 279 278 277 278 278 277 275 274 273 272 271 269 269 268 270 270 270 270 271 272 273 273 274 275 277
275 275 276 276 276 277 278 279 280 282 283 283 283 283 282 282 281 281 281 279 278 278 278 278 278 276 275 274 273 272 271 270 269 269 269 267 267 268 269 270 270 270 271 272
274 275 275 276 277 277 278 280 282 282 283 283 283 283 284 283 282 281 281 280 279 279 278 278 278 277 276 274 273 272 271 270 269 268 268 268 266 266 266 267 267 268 268 268
Height
5798 5801 5802 5805 5807 5809 5811 5814 5816 5818 5819 5821 5823 5824 5825 5827 5828 5830 5832 5834 5835 5836 5837 5837 5837 5838 5838 5839 5839 5838 5837 5837 5836 5834 5833 5831 5829 5827 5824 5821 5818 5815 5811 5808
5799 5800 5802 5804 5806 5808 5810 5813 5815 5817 5818 5820 5822 5823 5824 5825 5827 5829 5831 5832 5833 5834 5835 5835 5835 5836 5836 5837 5837 5836 5836 5835 5834 5833 5831 5829 5827 5825 5822 5819 5816 5813 5809 5806
5799 5801 5802 5804 5806 5808 5810 5812 5814 5816 5818 5819 5821 5823 5824 5825 5826 5827 5829 5830 5831 5832 5832 5833 5834 5834 5834 5834 5834 5834 5834 5833 5832 5831 5829 5828 5825 5823 5820 5817 5814 5811 5807 5804
5800 5801 5803 5805 5806 5808 5810 5812 5814 5816 5817 5819 5821 5822 5823 5824 5825 5826 5828 5829 5830 5830 5831 5831 5832 5832 5832 5832 5832 5832 5831 5831 5830 5829 5828 5826 5824 5821 5818 5815 5812 5809 5805 5802
5802 5803 5804 5805 5807 5808 5810 5812 5814 5815 5817 5819 5821 5823 5824 5824 5825 5826 5827 5828 5829 5829 5829 5829 5830 5830 5830 5830 5830 5830 5829 5829 5828 5827 5826 5824 5822 5819 5817 5814 5810 5807 5803 5800
5804 5805 5806 5806 5808 5809 5811 5813 5814 5816 5818 5820 5821 5822 5823 5824 5824 5825 5826 5826 5827 5827 5827 5828 5828 5828 5828 5828 5828 5827 5827 5826 5826 5825 5824 5822 5820 5818 5815 5812 5809 5806 5802 5798
5806 5807 5807 5808 5809 5810 5812 5814 5815 5816 5818 5820 5821 5822 5824 5824 5824 5824 5825 5825 5825 5826 5826 5826 5826 5826 5826 5826 5826 5825 5825 5824 5824 5823 5822 5820 5818 5816 5813 5810 5807 5804 5800 5797
5808 5809 5809 5809 5810 5811 5812 5814 5817 5818 5818 5820 5821 5822 5824 5824 5824 5824 5824 5824 5824 5824 5824 5824 5824 5824 5824 5824 5824 5823 5823 5822 5822 5821 5819 5818 5816 5814 5811 5809 5806 5802 5799 5795
5810 5811 5811 5811 5811 5812 5813 5814 5816 5818 5818 5820 5821 5822 5823 5823 5823 5823 5823 5823 5823 5823 5823 5823 5822 5822 5822 5822 5822 5821 5821 5820 5820 5819 5817 5816 5814 5812 5810 5807 5804 5801 5797 5794
5811 5812 5812 5812 5813 5814 5815 5815 5816 5817 5818 5819 5821 5821 5823 5823 5823 5823 5822 5822 5822 5821 5821 5821 5821 5821 5820 5820 5820 5819 5818 5818 5817 5816 5815 5814 5812 5810 5808 5805 5802 5799 5796 5793
5812 5813 5814 5813 5814 5814 5815 5816 5816 5817 5818 5820 5820 5823 5822 5822 5822 5822 5821 5821 5820 5820 5819 5819 5819 5818 5818 5818 5817 5817 5816 5816 5815 5814 5813 5812 5810 5808 5806 5803 5800 5798 5795 5791
5813 5814 5813 5814 5814 5814 5815 5816 5816 5817 5818 5819 5820 5823 5820 5820 5820 5820 5820 5820 5819 5818 5818 5817 5817 5816 5816 5815 5815 5814 5814 5813 5813 5812 5810 5809 5808 5806 5804 5801 5799 5796 5793 5790
5814 5814 5814 5814 5816 5816 5815 5815 5816 5817 5817 5818 5818 5822 5818 5818 5818 5818 5818 5818 5817 5816 5816 5815 5815 5814 5813 5813 5812 5812 5811 5811 5810 5809 5808 5807 5805 5803 5801 5799 5797 5794 5791 5789
5813 5813 5814 5815 5814 5814 5814 5814 5815 5815 5815 5816 5817 5817 5817 5816 5816 5816 5815 5815 5814 5814 5813 5813 5812 5811 5811 5810 5809 5809 5808 5808 5807 5806 5805 5804 5803 5801 5799 5797 5795 5792 5790 5787
5812 5813 5812 5813 5813 5813 5813 5813 5813 5813 5813 5814 5815 5814 5814 5813 5813 5813 5812 5812 5811 5811 5810 5810 5809 5808 5808 5807 5806 5806 5805 5804 5803 5803 5802 5801 5800 5798 5797 5795 5792 5790 5788 5785
5811 5811 5811 5811 5811 5811 5811 5811 5811 5811 5811 5811 5811 5811 5811 5810 5810 5809 5809 5808 5807 5807 5806 5806 5805 5804 5804 5803 5803 5802 5801 5801 5800 5799 5798 5797 5796 5795 5794 5792 5790 5788 5786 5784
5808 5808 5809 5809 5809 5809 5809 5809 5808 5808 5808 5808 5808 5808 5807 5807 5806 5805 5805 5804 5803 5802 5802 5801 5801 5800 5800 5799 5799 5798 5797 5797 5796 5795 5795 5794 5793 5792 5790 5789 5787 5785 5783 5781
5806 5806 5805 5806 5806 5806 5808 5805 5805 5805 5804 5804 5804 5803 5803 5802 5802 5801 5800 5799 5798 5797 5797 5796 5796 5795 5795 5794 5794 5793 5793 5792 5792 5791 5790 5790 5789 5788 5786 5785 5784 5782 5780 5779
5802 5802 5802 5802 5801 5802 5802 5801 5801 5800 5800 5800 5799 5798 5797 5797 5796 5796 5795 5794 5793 5792 5791 5791 5790 5790 5790 5789 5789 5788 5788 5787 5787 5786 5786 5785 5784 5783 5782 5781 5780 5779 5777 5775
5798 5797 5798 5797 5796 5797 5798 5797 5796 5796 5795 5795 5793 5793 5792 5791 5791 5791 5789 5788 5786 5785 5785 5784 5784 5783 5783 5783 5783 5782 5782 5782 5782 5781 5781 5780 5779 5779 5778 5777 5776 5775 5773 5772
5792 5792 5792 5791 5791 5791 5792 5791 5791 5791 5791 5789 5787 5786 5785 5784 5784 5783 5782 5781 5780 5779 5778 5777 5776 5776 5776 5776 5776 5776 5775 5775 5775 5775 5775 5774 5774 5773 5772 5772 5771 5770 5769 5768
5786 5786 5785 5785 5785 5787 5785 5784 5784 5784 5782 5782 5780 5779 5778 5777 5776 5775 5774 5773 5772 5771 5770 5769 5769 5768 5768 5768 5768 5768 5768 5768 5768 5768 5768 5768 5767 5767 5766 5766 5765 5765 5764 5763
5779 5780 5778 5779 5780 5778 5777 5776 5776 5775 5775 5774 5772 5771 5770 5769 5768 5767 5765 5764 5763 5762 5762 5761 5760 5760 5759 5759 5759 5760 5760 5760 5760 5760 5760 5760 5760 5760 5760 5759 5759 5759 5758 5758
5772 5771 5771 5770 5770 5769 5769 5768 5767 5767 5766 5764 5763 5762 5761 5760 5758 5757 5756 5755 5754 5753 5752 5752 5751 5750 5750 5749 5749 5750 5750 5751 5751 5751 5751 5751 5751 5751 5752 5752 5752 5752 5751 5751
5764 5763 5762 5762 5762 5760 5760 5759 5758 5757 5756 5755 5753 5752 5750 5749 5748 5747 5746 5745 5744 5744 5743 5742 5741 5740 5740 5739 5739 5739 5740 5740 5741 5741 5741 5741 5742 5742 5742 5743 5743 5743 5744 5744
5754 5753 5752 5752 5752 5751 5751 5749 5748 5747 5745 5744 5743 5742 5740 5738 5737 5736 5735 5734 5733 5733 5732 5731 5730 5729 5729 5728 5728 5728 5729 5729 5730 5731 5731 5731 5731 5732 5732 5733 5734 5734 5735 5735